START_TIME,STEP,MOV.,AL01,t_acc.,AL02,t_acc.,E37,t_acc.,H21,t_acc.
1981-08-28 00:00:35.050 ,6,0,0.,24.0,0.,24.0,0.,24.0,0.,24.0
1981-08-28 00:00:59.050 ,7,1,6.,24.0,0.,24.0,0.,24.0,0.,24.0
1981-08-28 00:01:23.050 ,7,0,31.,24.0,0.,24.0,1.,24.0,0.,24.0
1981-08-28 00:01:47.050 ,7,1,27.,24.0,0.,24.0,0.,24.0,0.,24.0
1981-08-28 00:02:11.050 ,6,1,24.,24.0,0.,24.0,0.,24.0,0.,24.0
1981-08-28 00:02:35.050 ,5,1,0.,24.0,0.,24.0,1.,24.0,0.,24.0
1981-08-28 00:02:59.050 ,4,1,0.,24.0,0.,24.0,1.,24.0,0.,24.0
1981-08-28 00:03:23.050 ,3,1,0.,24.0,0.,24.0,0.,24.0,0.,24.0
1981-08-28 00:03:47.050 ,2,1,0.,24.0,0.,24.0,0.,24.0,0.,24.0
1981-08-28 00:04:11.050 ,1,1,0.,24.0,0.,24.0,1.,24.0,0.,24.0
1981-08-28 00:04:35.050 ,0,1,0.,24.0,0.,24.0,0.,24.0,0.,24.0
1981-08-28 00:06:35.050 ,0,0,0.,24.0,1.,24.0,0.,24.0,0.,24.0
1981-08-28 00:06:59.050 ,5,1,0.,24.0,0.,24.0,0.,24.0,0.,24.0
1981-08-28 00:07:23.050 ,6,1,0.,24.0,0.,24.0,0.,24.0,0.,24.0
1981-08-28 00:07:47.050 ,7,1,10.,24.0,0.,24.0,0.,24.0,0.,24.0
1981-08-28 00:08:11.050 ,7,1,26.,24.0,0.,24.0,0.,24.0,0.,24.0
1981-08-28 00:08:35.050 ,7,0,38.,24.0,0.,24.0,0.,24.0,0.,24.0
1981-08-28 00:08:59.050 ,6,1,24.,24.0,0.,24.0,0.,24.0,0.,24.0
1981-08-28 00:09:23.050 ,6,0,0.,24.0,0.,24.0,1.,24.0,0.,24.0
1981-08-28 00:09:47.050 ,5,1,0.,24.0,0.,24.0,0.,24.0,0.,24.0
1981-08-28 00:10:11.050 ,5,0,0.,24.0,0.,24.0,0.,24.0,0.,24.0
1981-08-28 00:10:35.050 ,4,1,0.,24.0,0.,24.0,1.,24.0,0.,24.0
1981-08-28 00:10:59.050 ,4,0,0.,24.0,0.,24.0,0.,24.0,0.,24.0
1981-08-28 00:11:23.050 ,3,1,1.,24.0,0.,24.0,0.,24.0,0.,24.0
1981-08-28 00:11:47.050 ,3,0,0.,24.0,0.,24.0,0.,24.0,0.,24.0
1981-08-28 00:12:11.050 ,2,1,0.,24.0,0.,24.0,0.,24.0,0.,24.0
1981-08-28 00:12:35.050 ,2,0,0.,24.0,0.,24.0,0.,24.0,0.,24.0
1981-08-28 00:12:59.050 ,1,1,0.,24.0,0.,24.0,0.,24.0,0.,24.0
1981-08-28 00:13:23.050 ,1,0,0.,24.0,0.,24.0,0.,24.0,0.,24.0
1981-08-28 00:13:47.050 ,0,1,0.,24.0,0.,24.0,0.,24.0,0.,24.0
1981-08-28 00:14:11.050 ,0,0,0.,24.0,0.,24.0,0.,24.0,0.,24.0
1981-08-28 00:14:35.050 ,0,1,0.,24.0,0.,24.0,0.,24.0,0.,24.0
1981-08-28 00:14:59.050 ,0,0,1.,24.0,0.,24.0,0.,24.0,0.,24.0
1981-08-28 00:15:23.050 ,1,1,0.,24.0,0.,24.0,0.,24.0,0.,24.0
1981-08-28 00:15:47.050 ,1,0,0.,24.0,0.,24.0,0.,24.0,0.,24.0
1981-08-28 00:16:11.050 ,2,1,0.,24.0,0.,24.0,0.,24.0,0.,24.0
1981-08-28 00:16:35.050 ,2,0,0.,24.0,1.,24.0,0.,24.0,0.,24.0
1981-08-28 00:16:59.050 ,3,1,0.,24.0,0.,24.0,0.,24.0,0.,24.0
1981-08-28 00:17:23.050 ,3,0,0.,24.0,0.,24.0,1.,24.0,0.,24.0
1981-08-28 00:17:47.050 ,4,1,0.,24.0,0.,24.0,0.,24.0,0.,24.0
1981-08-28 00:18:11.050 ,4,0,0.,24.0,0.,24.0,0.,24.0,0.,24.0
1981-08-28 00:18:35.050 ,5,1,0.,24.0,0.,24.0,0.,24.0,0.,24.0
1981-08-28 00:18:59.050 ,5,0,0.,24.0,0.,24.0,0.,24.0,0.,24.0
1981-08-28 00:19:23.050 ,6,1,0.,24.0,0.,24.0,1.,24.0,0.,24.0
1981-08-28 00:19:47.050 ,6,0,0.,24.0,0.,24.0,1.,24.0,0.,24.0
1981-08-28 00:20:11.050 ,7,1,8.,24.0,0.,24.0,0.,24.0,0.,24.0
1981-08-28 00:20:35.050 ,7,0,25.,24.0,0.,24.0,1.,24.0,0.,24.0
1981-08-28 00:20:59.050 ,7,1,36.,24.0,0.,24.0,1.,24.0,0.,24.0
1981-08-28 00:21:23.050 ,6,1,33.,24.0,0.,24.0,1.,24.0,0.,24.0
1981-08-28 00:21:47.050 ,5,1,0.,24.0,0.,24.0,0.,24.0,0.,24.0
1981-08-28 00:22:11.050 ,4,1,0.,24.0,0.,24.0,0.,24.0,0.,24.0
1981-08-28 00:22:35.050 ,3,1,0.,24.0,0.,24.0,1.,24.0,0.,24.0
1981-08-28 00:22:59.050 ,2,1,0.,24.0,0.,24.0,0.,24.0,0.,24.0
1981-08-28 00:23:23.050 ,1,1,0.,24.0,0.,24.0,0.,24.0,0.,24.0
1981-08-28 00:23:47.050 ,0,1,0.,24.0,0.,24.0,0.,24.0,0.,24.0
1981-08-28 00:24:11.050 ,0,1,0.,24.0,0.,24.0,0.,24.0,0.,24.0
1981-08-28 00:24:35.050 ,1,1,0.,24.0,0.,24.0,0.,24.0,0.,24.0
1981-08-28 00:24:59.050 ,2,1,0.,24.0,0.,24.0,0.,24.0,0.,24.0
1981-08-28 00:25:23.050 ,3,1,0.,24.0,0.,24.0,0.,24.0,0.,24.0
1981-08-28 00:25:47.050 ,4,1,0.,24.0,0.,24.0,0.,24.0,0.,24.0
1981-08-28 00:26:11.050 ,5,1,0.,24.0,0.,24.0,0.,24.0,0.,24.0
1981-08-28 00:26:35.050 ,6,1,0.,24.0,0.,24.0,0.,24.0,0.,24.0
1981-08-28 00:26:59.050 ,7,1,7.,24.0,0.,24.0,1.,24.0,0.,24.0
1981-08-28 00:27:23.050 ,7,1,23.,24.0,0.,24.0,1.,24.0,0.,24.0
1981-08-28 00:27:47.050 ,7,0,34.,24.0,0.,24.0,0.,24.0,0.,24.0
1981-08-28 00:28:11.050 ,6,1,27.,24.0,0.,24.0,0.,24.0,0.,24.0
1981-08-28 00:28:35.050 ,6,0,0.,24.0,0.,24.0,1.,24.0,0.,24.0
1981-08-28 00:28:59.050 ,5,1,0.,24.0,0.,24.0,0.,24.0,0.,24.0
1981-08-28 00:29:23.050 ,5,0,0.,24.0,0.,24.0,1.,24.0,0.,24.0
1981-08-28 00:29:47.050 ,4,1,0.,24.0,0.,24.0,0.,24.0,0.,24.0
1981-08-28 00:30:11.050 ,4,0,0.,24.0,0.,24.0,0.,24.0,0.,24.0
1981-08-28 00:30:35.050 ,3,1,0.,24.0,0.,24.0,1.,24.0,0.,24.0
1981-08-28 00:30:59.050 ,3,0,0.,24.0,1.,24.0,0.,24.0,0.,24.0
1981-08-28 00:31:23.050 ,2,1,0.,24.0,0.,24.0,0.,24.0,0.,24.0
1981-08-28 00:31:47.050 ,2,0,0.,24.0,0.,24.0,0.,24.0,0.,24.0
1981-08-28 00:32:11.050 ,1,1,0.,24.0,0.,24.0,0.,24.0,0.,24.0
1981-08-28 00:32:35.050 ,1,0,0.,24.0,0.,24.0,1.,24.0,0.,24.0
1981-08-28 00:32:59.050 ,0,1,0.,24.0,0.,24.0,0.,24.0,0.,24.0
1981-08-28 00:33:23.050 ,0,0,0.,24.0,0.,24.0,0.,24.0,0.,24.0
1981-08-28 00:33:47.050 ,0,1,0.,24.0,0.,24.0,0.,24.0,0.,24.0
1981-08-28 00:34:11.050 ,0,0,0.,24.0,0.,24.0,0.,24.0,0.,24.0
1981-08-28 00:34:35.050 ,1,1,0.,24.0,0.,24.0,0.,24.0,0.,24.0
1981-08-28 00:34:59.050 ,1,0,0.,24.0,0.,24.0,0.,24.0,0.,24.0
1981-08-28 00:35:23.050 ,2,1,0.,24.0,0.,24.0,0.,24.0,0.,24.0
1981-08-28 00:35:47.050 ,2,0,0.,24.0,0.,24.0,0.,24.0,0.,24.0
1981-08-28 00:36:11.050 ,3,1,0.,24.0,0.,24.0,0.,24.0,0.,24.0
1981-08-28 00:36:35.050 ,3,0,0.,24.0,0.,24.0,1.,24.0,0.,24.0
1981-08-28 00:36:59.050 ,4,1,0.,24.0,0.,24.0,0.,24.0,0.,24.0
1981-08-28 00:37:23.050 ,4,0,0.,24.0,0.,24.0,0.,24.0,0.,24.0
1981-08-28 00:37:47.050 ,5,1,0.,24.0,0.,24.0,0.,24.0,0.,24.0
1981-08-28 00:38:11.050 ,0,0,0.,24.0,0.,24.0,0.,24.0,0.,24.0
1981-08-28 00:38:26.650 ,0,0,,0,,0,,0,,0
1981-08-28 00:38:27.250 ,0,0,,0,,0,,0,,0
1981-08-28 00:38:35.050 ,6,1,0.,24.0,0.,24.0,1.,24.0,0.,24.0
1981-08-28 00:38:59.050 ,6,0,0.,24.0,0.,24.0,0.,24.0,0.,24.0
1981-08-28 00:39:23.050 ,7,1,13.,24.0,0.,24.0,1.,24.0,0.,24.0
1981-08-28 00:39:47.050 ,7,0,35.,24.0,0.,24.0,0.,24.0,0.,24.0
1981-08-28 00:40:11.050 ,7,1,29.,24.0,0.,24.0,0.,24.0,0.,24.0
1981-08-28 00:40:35.050 ,6,1,17.,24.0,0.,24.0,1.,24.0,0.,24.0
1981-08-28 00:40:59.050 ,5,1,0.,24.0,0.,24.0,1.,24.0,0.,24.0
1981-08-28 00:41:23.050 ,4,1,0.,24.0,0.,24.0,0.,24.0,0.,24.0
1981-08-28 00:41:47.050 ,3,1,0.,24.0,0.,24.0,0.,24.0,0.,24.0
1981-08-28 00:42:11.050 ,2,1,0.,24.0,0.,24.0,1.,24.0,0.,24.0
1981-08-28 00:42:35.050 ,1,1,0.,24.0,0.,24.0,0.,24.0,0.,24.0
1981-08-28 00:42:59.050 ,0,1,0.,24.0,0.,24.0,0.,24.0,0.,24.0
1981-08-28 00:43:23.050 ,0,1,0.,24.0,0.,24.0,1.,24.0,0.,24.0
1981-08-28 00:43:47.050 ,1,1,0.,24.0,0.,24.0,0.,24.0,0.,24.0
1981-08-28 00:44:11.050 ,2,1,0.,24.0,0.,24.0,0.,24.0,0.,24.0
1981-08-28 00:44:35.050 ,3,1,0.,24.0,0.,24.0,0.,24.0,0.,24.0
1981-08-28 00:45:47.050 ,0,0,0.,24.0,0.,24.0,1.,24.0,0.,24.0
1981-08-28 00:46:11.050 ,7,1,10.,24.0,0.,24.0,0.,24.0,0.,24.0
1981-08-28 00:46:35.050 ,7,1,28.,24.0,0.,24.0,0.,24.0,0.,24.0
1981-08-28 00:46:59.050 ,7,0,35.,24.0,0.,24.0,1.,24.0,0.,24.0
1981-08-28 00:47:23.050 ,6,1,26.,24.0,0.,24.0,0.,24.0,0.,24.0
1981-08-28 00:47:47.050 ,6,0,0.,24.0,0.,24.0,0.,24.0,0.,24.0
1981-08-28 00:48:11.050 ,5,1,0.,24.0,0.,24.0,0.,24.0,0.,24.0
1981-08-28 00:48:35.050 ,5,0,0.,24.0,0.,24.0,0.,24.0,0.,24.0
1981-08-28 00:48:59.050 ,4,1,0.,24.0,0.,24.0,0.,24.0,0.,24.0
1981-08-28 00:49:23.050 ,4,0,0.,24.0,0.,24.0,0.,24.0,0.,24.0
1981-08-28 00:49:47.050 ,3,1,0.,24.0,0.,24.0,0.,24.0,0.,24.0
1981-08-28 00:50:11.050 ,3,0,0.,24.0,1.,24.0,0.,24.0,0.,24.0
1981-08-28 00:50:35.050 ,2,1,0.,24.0,0.,24.0,2.,24.0,0.,24.0
1981-08-28 00:50:59.050 ,2,0,0.,24.0,0.,24.0,2.,24.0,0.,24.0
1981-08-28 00:51:23.050 ,1,1,1.,24.0,0.,24.0,0.,24.0,0.,24.0
1981-08-28 00:51:47.050 ,1,0,0.,24.0,0.,24.0,0.,24.0,0.,24.0
1981-08-28 00:52:11.050 ,0,1,0.,24.0,0.,24.0,0.,24.0,0.,24.0
1981-08-28 00:52:35.050 ,0,0,0.,24.0,0.,24.0,0.,24.0,0.,24.0
1981-08-28 00:52:59.050 ,0,1,0.,24.0,0.,24.0,0.,24.0,0.,24.0
1981-08-28 00:53:23.050 ,0,0,0.,24.0,0.,24.0,0.,24.0,0.,24.0
1981-08-28 00:53:47.050 ,1,1,0.,24.0,0.,24.0,0.,24.0,0.,24.0
1981-08-28 00:54:11.050 ,1,0,0.,24.0,0.,24.0,0.,24.0,0.,24.0
1981-08-28 00:54:35.050 ,2,1,0.,24.0,1.,24.0,0.,24.0,0.,24.0
1981-08-28 00:54:59.050 ,2,0,0.,24.0,0.,24.0,0.,24.0,0.,24.0
1981-08-28 00:55:23.050 ,3,1,0.,24.0,0.,24.0,0.,24.0,0.,24.0
1981-08-28 00:55:47.050 ,3,0,0.,24.0,0.,24.0,0.,24.0,0.,24.0
1981-08-28 00:56:11.050 ,4,1,0.,24.0,0.,24.0,0.,24.0,0.,24.0
1981-08-28 00:56:35.050 ,4,0,0.,24.0,0.,24.0,1.,24.0,0.,24.0
1981-08-28 00:56:59.050 ,5,1,0.,24.0,0.,24.0,1.,24.0,0.,24.0
1981-08-28 00:57:23.050 ,5,0,0.,24.0,0.,24.0,0.,24.0,0.,24.0
1981-08-28 00:57:47.050 ,6,1,0.,24.0,0.,24.0,1.,24.0,0.,24.0
1981-08-28 00:58:11.050 ,6,0,0.,24.0,0.,24.0,0.,24.0,0.,24.0
1981-08-28 00:58:35.050 ,7,1,6.,24.0,0.,24.0,1.,24.0,0.,24.0
1981-08-28 00:58:59.050 ,7,0,34.,24.0,0.,24.0,0.,24.0,0.,24.0
1981-08-28 00:59:23.050 ,7,1,34.,24.0,0.,24.0,0.,24.0,0.,24.0
1981-08-28 00:59:47.050 ,6,1,10.,24.0,0.,24.0,0.,24.0,0.,24.0
1981-08-28 01:00:11.050 ,5,1,0.,24.0,0.,24.0,0.,24.0,0.,24.0
1981-08-28 01:00:35.050 ,4,1,1.,24.0,0.,24.0,1.,24.0,0.,24.0
1981-08-28 01:00:59.050 ,3,1,0.,24.0,0.,24.0,0.,24.0,0.,24.0
1981-08-28 01:01:23.050 ,2,1,0.,24.0,0.,24.0,0.,24.0,0.,24.0
1981-08-28 01:01:47.050 ,1,1,0.,24.0,0.,24.0,0.,24.0,0.,24.0
1981-08-28 01:02:11.050 ,0,1,0.,24.0,0.,24.0,0.,24.0,0.,24.0
1981-08-28 01:02:35.050 ,0,1,0.,24.0,0.,24.0,1.,24.0,0.,24.0
1981-08-28 01:02:59.050 ,1,1,0.,24.0,0.,24.0,0.,24.0,0.,24.0
1981-08-28 01:03:23.050 ,2,1,0.,24.0,0.,24.0,0.,24.0,0.,24.0
1981-08-28 01:03:47.050 ,3,1,0.,24.0,0.,24.0,0.,24.0,0.,24.0
1981-08-28 01:04:11.050 ,4,1,0.,24.0,0.,24.0,0.,24.0,0.,24.0
1981-08-28 01:04:35.050 ,5,1,0.,24.0,0.,24.0,0.,24.0,0.,24.0
1981-08-28 01:04:59.050 ,6,1,0.,24.0,0.,24.0,0.,24.0,0.,24.0
1981-08-28 01:05:23.050 ,7,1,5.,24.0,0.,24.0,0.,24.0,0.,24.0
1981-08-28 01:05:47.050 ,7,1,26.,24.0,0.,24.0,0.,24.0,0.,24.0
1981-08-28 01:06:11.050 ,7,0,44.,24.0,0.,24.0,0.,24.0,0.,24.0
1981-08-28 01:06:35.050 ,6,1,17.,24.0,0.,24.0,0.,24.0,0.,24.0
1981-08-28 01:06:59.050 ,6,0,0.,24.0,0.,24.0,0.,24.0,0.,24.0
1981-08-28 01:07:23.050 ,5,1,0.,24.0,0.,24.0,0.,24.0,0.,24.0
1981-08-28 01:07:47.050 ,5,0,1.,24.0,0.,24.0,0.,24.0,0.,24.0
1981-08-28 01:08:11.050 ,4,1,0.,24.0,0.,24.0,0.,24.0,0.,24.0
1981-08-28 01:08:35.050 ,4,0,0.,24.0,0.,24.0,0.,24.0,0.,24.0
1981-08-28 01:08:59.050 ,3,1,0.,24.0,0.,24.0,0.,24.0,0.,24.0
1981-08-28 01:09:23.050 ,3,0,0.,24.0,0.,24.0,0.,24.0,0.,24.0
1981-08-28 01:09:47.050 ,2,1,0.,24.0,0.,24.0,0.,24.0,0.,24.0
1981-08-28 01:10:11.050 ,2,0,0.,24.0,0.,24.0,0.,24.0,0.,24.0
1981-08-28 01:10:35.050 ,1,1,0.,24.0,0.,24.0,0.,24.0,0.,24.0
1981-08-28 01:10:59.050 ,1,0,0.,24.0,0.,24.0,1.,24.0,0.,24.0
1981-08-28 01:11:23.050 ,0,1,0.,24.0,0.,24.0,0.,24.0,0.,24.0
1981-08-28 01:11:47.050 ,0,0,0.,24.0,0.,24.0,0.,24.0,0.,24.0
1981-08-28 01:12:11.050 ,0,1,0.,24.0,0.,24.0,0.,24.0,0.,24.0
1981-08-28 01:12:35.050 ,0,0,0.,24.0,0.,24.0,0.,24.0,0.,24.0
1981-08-28 01:12:59.050 ,1,1,0.,24.0,0.,24.0,0.,24.0,0.,24.0
1981-08-28 01:13:23.050 ,1,0,0.,24.0,0.,24.0,0.,24.0,0.,24.0
1981-08-28 01:13:47.050 ,2,1,0.,24.0,0.,24.0,1.,24.0,0.,24.0
1981-08-28 01:14:11.050 ,2,0,0.,24.0,0.,24.0,1.,24.0,0.,24.0
1981-08-28 01:14:35.050 ,3,1,0.,24.0,0.,24.0,0.,24.0,0.,24.0
1981-08-28 01:14:59.050 ,3,0,0.,24.0,0.,24.0,0.,24.0,0.,24.0
1981-08-28 01:15:23.050 ,4,1,0.,24.0,0.,24.0,0.,24.0,0.,24.0
1981-08-28 01:15:47.050 ,4,0,0.,24.0,0.,24.0,0.,24.0,0.,24.0
1981-08-28 01:16:11.050 ,5,1,0.,24.0,0.,24.0,1.,24.0,0.,24.0
1981-08-28 01:16:35.050 ,0,0,0.,24.0,0.,24.0,2.,24.0,0.,24.0
1981-08-28 01:16:59.050 ,6,1,0.,24.0,0.,24.0,0.,24.0,0.,24.0
1981-08-28 01:17:23.050 ,6,0,0.,24.0,0.,24.0,0.,24.0,0.,24.0
1981-08-28 01:17:47.050 ,7,1,7.,24.0,0.,24.0,0.,24.0,0.,24.0
1981-08-28 01:18:11.050 ,7,0,37.,24.0,0.,24.0,0.,24.0,0.,24.0
1981-08-28 01:18:35.050 ,7,1,21.,24.0,0.,24.0,1.,24.0,0.,24.0
1981-08-28 01:18:59.050 ,6,1,19.,24.0,0.,24.0,0.,24.0,0.,24.0
1981-08-28 01:19:23.050 ,5,1,0.,24.0,0.,24.0,0.,24.0,0.,24.0
1981-08-28 01:19:47.050 ,4,1,0.,24.0,0.,24.0,0.,24.0,0.,24.0
1981-08-28 01:20:11.050 ,3,1,0.,24.0,0.,24.0,2.,24.0,0.,24.0
1981-08-28 01:20:35.050 ,2,1,0.,24.0,0.,24.0,1.,24.0,0.,24.0
1981-08-28 01:20:59.050 ,1,1,0.,24.0,0.,24.0,1.,24.0,0.,24.0
1981-08-28 01:21:23.050 ,0,1,0.,24.0,0.,24.0,0.,24.0,0.,24.0
1981-08-28 01:21:47.050 ,0,1,0.,24.0,0.,24.0,0.,24.0,0.,24.0
1981-08-28 01:22:11.050 ,1,1,0.,24.0,0.,24.0,0.,24.0,0.,24.0
1981-08-28 01:22:35.050 ,2,1,0.,24.0,0.,24.0,0.,24.0,0.,24.0
1981-08-28 01:22:59.050 ,3,1,0.,24.0,0.,24.0,0.,24.0,0.,24.0
1981-08-28 01:23:23.050 ,4,1,0.,24.0,0.,24.0,0.,24.0,0.,24.0
1981-08-28 01:23:47.050 ,5,1,0.,24.0,0.,24.0,0.,24.0,0.,24.0
1981-08-28 01:24:11.050 ,6,1,0.,24.0,0.,24.0,0.,24.0,0.,24.0
1981-08-28 01:24:35.050 ,7,1,7.,24.0,0.,24.0,1.,24.0,0.,24.0
1981-08-28 01:24:59.050 ,7,1,21.,24.0,0.,24.0,0.,24.0,0.,24.0
1981-08-28 01:25:23.050 ,7,0,26.,24.0,1.,24.0,1.,24.0,0.,24.0
1981-08-28 01:25:47.050 ,6,1,17.,24.0,0.,24.0,0.,24.0,0.,24.0
1981-08-28 01:26:11.050 ,6,0,0.,24.0,0.,24.0,1.,24.0,0.,24.0
1981-08-28 01:26:35.050 ,5,1,0.,24.0,0.,24.0,2.,24.0,0.,24.0
1981-08-28 01:26:59.050 ,5,0,0.,24.0,0.,24.0,0.,24.0,0.,24.0
1981-08-28 01:27:23.050 ,4,1,0.,24.0,0.,24.0,0.,24.0,0.,24.0
1981-08-28 01:27:47.050 ,4,0,0.,24.0,0.,24.0,0.,24.0,0.,24.0
1981-08-28 01:28:11.050 ,3,1,,0,,0,,0,,0
1981-08-28 01:28:35.050 ,3,0,0.,24.0,0.,24.0,1.,24.0,0.,24.0
1981-08-28 01:28:59.050 ,2,1,0.,24.0,0.,24.0,1.,24.0,0.,24.0
1981-08-28 01:29:23.050 ,2,0,0.,24.0,0.,24.0,0.,24.0,0.,24.0
1981-08-28 01:29:47.050 ,1,1,0.,24.0,0.,24.0,1.,24.0,0.,24.0
1981-08-28 01:30:11.050 ,1,0,0.,24.0,0.,24.0,0.,24.0,0.,24.0
1981-08-28 01:30:35.050 ,0,1,0.,24.0,0.,24.0,0.,24.0,0.,24.0
1981-08-28 01:30:59.050 ,0,0,0.,24.0,0.,24.0,1.,24.0,0.,24.0
1981-08-28 01:31:23.050 ,0,1,0.,24.0,0.,24.0,1.,24.0,0.,24.0
1981-08-28 01:31:47.050 ,0,0,0.,24.0,0.,24.0,0.,24.0,0.,24.0
1981-08-28 01:32:11.050 ,1,1,1.,24.0,0.,24.0,0.,24.0,0.,24.0
1981-08-28 01:32:35.050 ,1,0,0.,24.0,0.,24.0,0.,24.0,0.,24.0
1981-08-28 01:32:59.050 ,2,1,0.,24.0,0.,24.0,2.,24.0,0.,24.0
1981-08-28 01:33:23.050 ,2,0,0.,24.0,0.,24.0,0.,24.0,0.,24.0
1981-08-28 01:33:47.050 ,3,1,0.,24.0,0.,24.0,0.,24.0,0.,24.0
1981-08-28 01:34:11.050 ,3,0,0.,24.0,0.,24.0,0.,24.0,0.,24.0
1981-08-28 01:34:35.050 ,4,1,0.,24.0,0.,24.0,1.,24.0,0.,24.0
1981-08-28 01:34:59.050 ,4,0,0.,24.0,0.,24.0,0.,24.0,0.,24.0
1981-08-28 01:35:23.050 ,5,1,1.,24.0,0.,24.0,0.,24.0,0.,24.0
1981-08-28 01:35:47.050 ,5,0,0.,24.0,0.,24.0,1.,24.0,0.,24.0
1981-08-28 01:36:11.050 ,6,1,0.,24.0,0.,24.0,0.,24.0,0.,24.0
1981-08-28 01:36:35.050 ,6,0,0.,24.0,0.,24.0,1.,24.0,0.,24.0
1981-08-28 01:36:59.050 ,7,1,6.,24.0,0.,24.0,0.,24.0,0.,24.0
1981-08-28 01:37:23.050 ,7,0,30.,24.0,0.,24.0,1.,24.0,0.,24.0
1981-08-28 01:37:47.050 ,7,1,34.,24.0,0.,24.0,0.,24.0,0.,24.0
1981-08-28 01:38:11.050 ,6,1,22.,24.0,0.,24.0,0.,24.0,0.,24.0
1981-08-28 01:38:35.050 ,5,1,0.,24.0,0.,24.0,0.,24.0,0.,24.0
1981-08-28 01:38:59.050 ,4,1,0.,24.0,0.,24.0,0.,24.0,0.,24.0
1981-08-28 01:39:23.050 ,3,1,1.,24.0,0.,24.0,0.,24.0,0.,24.0
1981-08-28 01:39:47.050 ,2,1,0.,24.0,0.,24.0,0.,24.0,0.,24.0
1981-08-28 01:40:11.050 ,1,1,0.,24.0,0.,24.0,0.,24.0,0.,24.0
1981-08-28 01:40:35.050 ,0,1,0.,24.0,0.,24.0,0.,24.0,0.,24.0
1981-08-28 01:40:59.050 ,0,1,0.,24.0,0.,24.0,1.,24.0,0.,24.0
1981-08-28 01:41:23.050 ,1,1,0.,24.0,0.,24.0,1.,24.0,0.,24.0
1981-08-28 01:41:47.050 ,2,1,0.,24.0,0.,24.0,1.,24.0,0.,24.0
1981-08-28 01:42:11.050 ,3,1,0.,24.0,0.,24.0,1.,24.0,0.,24.0
1981-08-28 01:42:35.050 ,4,1,0.,24.0,0.,24.0,0.,24.0,0.,24.0
1981-08-28 01:42:59.050 ,5,1,0.,24.0,0.,24.0,0.,24.0,0.,24.0
1981-08-28 01:43:23.050 ,6,1,0.,24.0,0.,24.0,0.,24.0,0.,24.0
1981-08-28 01:43:47.050 ,7,1,4.,24.0,0.,24.0,0.,24.0,0.,24.0
1981-08-28 01:44:11.050 ,7,1,29.,24.0,0.,24.0,0.,24.0,0.,24.0
1981-08-28 01:44:35.050 ,7,0,49.,24.0,0.,24.0,0.,24.0,0.,24.0
1981-08-28 01:44:59.050 ,6,1,19.,24.0,0.,24.0,0.,24.0,0.,24.0
1981-08-28 01:45:23.050 ,6,0,0.,24.0,0.,24.0,1.,24.0,0.,24.0
1981-08-28 01:45:47.050 ,5,1,0.,24.0,0.,24.0,1.,24.0,0.,24.0
1981-08-28 01:46:11.050 ,5,0,0.,24.0,0.,24.0,0.,24.0,0.,24.0
1981-08-28 01:46:35.050 ,4,1,0.,24.0,0.,24.0,0.,24.0,0.,24.0
1981-08-28 01:46:59.050 ,4,0,0.,24.0,0.,24.0,0.,24.0,0.,24.0
1981-08-28 01:47:23.050 ,3,1,0.,24.0,0.,24.0,1.,24.0,0.,24.0
1981-08-28 01:47:47.050 ,3,0,0.,24.0,0.,24.0,0.,24.0,0.,24.0
1981-08-28 01:48:11.050 ,2,1,0.,24.0,0.,24.0,0.,24.0,0.,24.0
1981-08-28 01:48:35.050 ,2,0,0.,24.0,0.,24.0,0.,24.0,0.,24.0
1981-08-28 01:48:59.050 ,1,1,0.,24.0,0.,24.0,0.,24.0,0.,24.0
1981-08-28 01:49:23.050 ,1,0,0.,24.0,0.,24.0,2.,24.0,0.,24.0
1981-08-28 01:49:47.050 ,0,1,0.,24.0,0.,24.0,0.,24.0,0.,24.0
1981-08-28 01:50:11.050 ,0,0,0.,24.0,0.,24.0,0.,24.0,0.,24.0
1981-08-28 01:50:35.050 ,0,1,0.,24.0,0.,24.0,0.,24.0,0.,24.0
1981-08-28 01:50:59.050 ,0,0,0.,24.0,0.,24.0,0.,24.0,0.,24.0
1981-08-28 01:51:23.050 ,1,1,0.,24.0,1.,24.0,0.,24.0,0.,24.0
1981-08-28 01:51:47.050 ,1,0,0.,24.0,0.,24.0,0.,24.0,0.,24.0
1981-08-28 01:52:11.050 ,2,1,0.,24.0,1.,24.0,0.,24.0,0.,24.0
1981-08-28 01:52:35.050 ,2,0,0.,24.0,0.,24.0,1.,24.0,0.,24.0
1981-08-28 01:52:59.050 ,3,1,0.,24.0,0.,24.0,0.,24.0,0.,24.0
1981-08-28 01:53:23.050 ,3,0,0.,24.0,0.,24.0,0.,24.0,0.,24.0
1981-08-28 01:53:47.050 ,4,1,0.,24.0,0.,24.0,0.,24.0,0.,24.0
1981-08-28 01:54:11.050 ,4,0,0.,24.0,0.,24.0,1.,24.0,0.,24.0
1981-08-28 01:54:35.050 ,5,1,0.,24.0,0.,24.0,0.,24.0,0.,24.0
1981-08-28 01:54:59.050 ,5,0,0.,24.0,0.,24.0,0.,24.0,0.,24.0
1981-08-28 01:55:23.050 ,6,1,0.,24.0,0.,24.0,1.,24.0,0.,24.0
1981-08-28 01:55:47.050 ,6,0,0.,24.0,0.,24.0,0.,24.0,0.,24.0
1981-08-28 01:56:11.050 ,7,1,2.,24.0,0.,24.0,0.,24.0,0.,24.0
1981-08-28 01:56:35.050 ,7,0,32.,24.0,0.,24.0,0.,24.0,0.,24.0
1981-08-28 01:56:59.050 ,7,1,32.,24.0,0.,24.0,0.,24.0,0.,24.0
1981-08-28 01:57:23.050 ,6,1,20.,24.0,0.,24.0,0.,24.0,0.,24.0
1981-08-28 01:57:47.050 ,5,1,0.,24.0,0.,24.0,0.,24.0,0.,24.0
1981-08-28 01:58:11.050 ,4,1,0.,24.0,0.,24.0,0.,24.0,0.,24.0
1981-08-28 01:58:35.050 ,3,1,0.,24.0,0.,24.0,0.,24.0,0.,24.0
1981-08-28 01:58:59.050 ,2,1,0.,24.0,0.,24.0,0.,24.0,0.,24.0
1981-08-28 01:59:23.050 ,1,1,0.,24.0,0.,24.0,0.,24.0,0.,24.0
1981-08-28 01:59:47.050 ,0,1,0.,24.0,0.,24.0,0.,24.0,0.,24.0
1981-08-28 02:00:11.040 ,0,1,0.,24.0,0.,24.0,0.,24.0,0.,24.0
1981-08-28 02:00:35.040 ,1,1,0.,24.0,0.,24.0,1.,24.0,0.,24.0
1981-08-28 02:00:59.040 ,2,1,0.,24.0,0.,24.0,0.,24.0,0.,24.0
1981-08-28 02:01:23.040 ,3,1,0.,24.0,0.,24.0,0.,24.0,0.,24.0
1981-08-28 02:01:47.040 ,4,1,0.,24.0,0.,24.0,1.,24.0,0.,24.0
1981-08-28 02:02:11.040 ,0,0,0.,24.0,0.,24.0,2.,24.0,0.,24.0
1981-08-28 02:05:59.640 ,0,0,,0,,0,,0,,0
1981-08-28 02:06:11.040 ,0,0,0.,24.0,0.,24.0,0.,24.0,0.,24.0
1981-08-28 02:06:35.040 ,3,1,0.,24.0,0.,24.0,0.,24.0,0.,24.0
1981-08-28 02:06:59.040 ,3,0,0.,24.0,0.,24.0,0.,24.0,0.,24.0
1981-08-28 02:07:23.040 ,2,1,0.,24.0,0.,24.0,1.,24.0,0.,24.0
1981-08-28 02:07:47.040 ,2,0,1.,24.0,0.,24.0,0.,24.0,0.,24.0
1981-08-28 02:08:11.040 ,1,1,0.,24.0,0.,24.0,0.,24.0,0.,24.0
1981-08-28 02:08:35.040 ,1,0,0.,24.0,0.,24.0,0.,24.0,0.,24.0
1981-08-28 02:08:59.040 ,0,1,0.,24.0,0.,24.0,0.,24.0,0.,24.0
1981-08-28 02:09:23.040 ,0,0,0.,24.0,0.,24.0,0.,24.0,0.,24.0
1981-08-28 02:09:47.040 ,0,1,0.,24.0,0.,24.0,0.,24.0,0.,24.0
1981-08-28 02:10:11.040 ,0,0,0.,24.0,0.,24.0,1.,24.0,0.,24.0
1981-08-28 02:10:35.040 ,1,1,0.,24.0,0.,24.0,0.,24.0,0.,24.0
1981-08-28 02:10:59.040 ,1,0,0.,24.0,0.,24.0,0.,24.0,0.,24.0
1981-08-28 02:11:23.040 ,2,1,0.,24.0,0.,24.0,0.,24.0,0.,24.0
1981-08-28 02:11:47.040 ,2,0,0.,24.0,0.,24.0,0.,24.0,0.,24.0
1981-08-28 02:12:11.040 ,3,1,1.,24.0,0.,24.0,1.,24.0,0.,24.0
1981-08-28 02:12:35.040 ,3,0,0.,24.0,0.,24.0,0.,24.0,0.,24.0
1981-08-28 02:12:59.040 ,4,1,0.,24.0,0.,24.0,0.,24.0,0.,24.0
1981-08-28 02:13:23.040 ,4,0,0.,24.0,0.,24.0,0.,24.0,0.,24.0
1981-08-28 02:13:47.040 ,5,1,0.,24.0,0.,24.0,0.,24.0,0.,24.0
1981-08-28 02:14:11.040 ,5,0,0.,24.0,0.,24.0,0.,24.0,0.,24.0
1981-08-28 02:14:35.040 ,6,1,0.,24.0,0.,24.0,0.,24.0,0.,24.0
1981-08-28 02:14:59.040 ,6,0,0.,24.0,0.,24.0,1.,24.0,0.,24.0
1981-08-28 02:15:23.040 ,7,1,2.,24.0,0.,24.0,0.,24.0,0.,24.0
1981-08-28 02:15:47.040 ,7,0,35.,24.0,0.,24.0,0.,24.0,0.,24.0
1981-08-28 02:16:11.040 ,7,1,36.,24.0,0.,24.0,1.,24.0,0.,24.0
1981-08-28 02:16:35.040 ,6,1,20.,24.0,0.,24.0,0.,24.0,0.,24.0
1981-08-28 02:16:59.040 ,5,1,0.,24.0,0.,24.0,0.,24.0,0.,24.0
1981-08-28 02:17:23.040 ,0,0,0.,24.0,0.,24.0,0.,24.0,0.,24.0
1981-08-28 02:17:47.040 ,3,1,0.,24.0,0.,24.0,0.,24.0,0.,24.0
1981-08-28 02:18:11.040 ,2,1,0.,24.0,0.,24.0,0.,24.0,0.,24.0
1981-08-28 02:18:35.040 ,1,1,1.,24.0,0.,24.0,0.,24.0,0.,24.0
1981-08-28 02:18:59.040 ,0,1,0.,24.0,0.,24.0,2.,24.0,0.,24.0
1981-08-28 02:19:23.040 ,0,1,0.,24.0,0.,24.0,1.,24.0,0.,24.0
1981-08-28 02:19:47.040 ,1,1,0.,24.0,0.,24.0,0.,24.0,0.,24.0
1981-08-28 02:20:11.040 ,2,1,0.,24.0,0.,24.0,0.,24.0,0.,24.0
1981-08-28 02:20:35.040 ,3,1,0.,24.0,0.,24.0,2.,24.0,0.,24.0
1981-08-28 02:20:59.040 ,4,1,0.,24.0,0.,24.0,0.,24.0,0.,24.0
1981-08-28 02:21:23.040 ,5,1,0.,24.0,0.,24.0,0.,24.0,0.,24.0
1981-08-28 02:21:47.040 ,6,1,0.,24.0,0.,24.0,0.,24.0,0.,24.0
1981-08-28 02:22:11.040 ,7,1,3.,24.0,0.,24.0,1.,24.0,0.,24.0
1981-08-28 02:22:35.040 ,7,1,33.,24.0,0.,24.0,0.,24.0,0.,24.0
1981-08-28 02:22:59.040 ,7,0,22.,24.0,0.,24.0,1.,24.0,0.,24.0
1981-08-28 02:23:23.040 ,6,1,17.,24.0,0.,24.0,0.,24.0,0.,24.0
1981-08-28 02:23:47.040 ,6,0,0.,24.0,0.,24.0,0.,24.0,0.,24.0
1981-08-28 02:24:11.040 ,5,1,0.,24.0,0.,24.0,0.,24.0,0.,24.0
1981-08-28 02:24:35.040 ,5,0,0.,24.0,0.,24.0,1.,24.0,0.,24.0
1981-08-28 02:24:59.040 ,4,1,0.,24.0,0.,24.0,0.,24.0,0.,24.0
1981-08-28 02:25:23.040 ,4,0,0.,24.0,0.,24.0,0.,24.0,0.,24.0
1981-08-28 02:25:47.040 ,3,1,0.,24.0,0.,24.0,1.,24.0,0.,24.0
1981-08-28 02:26:11.040 ,3,0,0.,24.0,0.,24.0,1.,24.0,0.,24.0
1981-08-28 02:26:35.040 ,2,1,0.,24.0,0.,24.0,0.,24.0,0.,24.0
1981-08-28 02:26:59.040 ,2,0,0.,24.0,0.,24.0,0.,24.0,0.,24.0
1981-08-28 02:27:23.040 ,1,1,0.,24.0,0.,24.0,0.,24.0,0.,24.0
1981-08-28 02:27:47.040 ,1,0,0.,24.0,0.,24.0,1.,24.0,0.,24.0
1981-08-28 02:28:11.040 ,0,1,0.,24.0,0.,24.0,0.,24.0,0.,24.0
1981-08-28 02:28:35.040 ,0,0,0.,24.0,0.,24.0,0.,24.0,0.,24.0
1981-08-28 02:28:59.040 ,0,1,0.,24.0,1.,24.0,0.,24.0,0.,24.0
1981-08-28 02:29:23.040 ,0,0,1.,24.0,0.,24.0,0.,24.0,0.,24.0
1981-08-28 02:30:35.040 ,0,0,0.,24.0,0.,24.0,0.,24.0,0.,24.0
1981-08-28 02:30:59.040 ,0,0,0.,24.0,0.,24.0,1.,24.0,0.,24.0
1981-08-28 02:31:23.040 ,3,1,0.,24.0,0.,24.0,1.,24.0,0.,24.0
1981-08-28 02:31:47.040 ,3,0,0.,24.0,0.,24.0,1.,24.0,0.,24.0
1981-08-28 02:32:11.040 ,4,1,0.,24.0,0.,24.0,2.,24.0,0.,24.0
1981-08-28 02:32:35.040 ,4,0,0.,24.0,0.,24.0,0.,24.0,0.,24.0
1981-08-28 02:32:59.040 ,5,1,0.,24.0,0.,24.0,0.,24.0,0.,24.0
1981-08-28 02:33:23.040 ,5,0,0.,24.0,0.,24.0,0.,24.0,0.,24.0
1981-08-28 02:33:47.040 ,6,1,0.,24.0,0.,24.0,0.,24.0,0.,24.0
1981-08-28 02:34:11.040 ,6,0,0.,24.0,0.,24.0,0.,24.0,0.,24.0
1981-08-28 02:34:35.040 ,7,1,6.,24.0,0.,24.0,0.,24.0,0.,24.0
1981-08-28 02:34:59.040 ,7,0,33.,24.0,0.,24.0,1.,24.0,0.,24.0
1981-08-28 02:35:23.040 ,7,1,39.,24.0,0.,24.0,1.,24.0,0.,24.0
1981-08-28 02:35:47.040 ,6,1,26.,24.0,0.,24.0,1.,24.0,0.,24.0
1981-08-28 02:36:59.040 ,0,0,0.,24.0,0.,24.0,0.,24.0,0.,24.0
1981-08-28 02:37:23.040 ,2,1,0.,24.0,0.,24.0,1.,24.0,0.,24.0
1981-08-28 02:37:47.040 ,1,1,0.,24.0,0.,24.0,0.,24.0,0.,24.0
1981-08-28 02:38:11.040 ,0,1,0.,24.0,0.,24.0,0.,24.0,0.,24.0
1981-08-28 02:38:35.040 ,0,1,0.,24.0,0.,24.0,0.,24.0,0.,24.0
1981-08-28 02:38:59.040 ,1,1,0.,24.0,0.,24.0,2.,24.0,0.,24.0
1981-08-28 02:39:23.040 ,2,1,0.,24.0,0.,24.0,0.,24.0,0.,24.0
1981-08-28 02:39:47.040 ,3,1,0.,24.0,0.,24.0,0.,24.0,0.,24.0
1981-08-28 02:40:11.040 ,4,1,0.,24.0,0.,24.0,0.,24.0,0.,24.0
1981-08-28 02:40:35.040 ,5,1,0.,24.0,0.,24.0,0.,24.0,0.,24.0
1981-08-28 02:40:59.040 ,6,1,0.,24.0,0.,24.0,0.,24.0,0.,24.0